Вернуться в каталог

STARLINK-11625

АктивенСвязьVLEO
NORAD 63109·PAYLOAD·🇺🇸 United States

Запущен Feb 27, 2025 с Cape Canaveral Space Force Station

Loading…

Ближайшие Пролёты (ближайшие 24 часа)

TLE

СвежийSource: CelesTrak SupGP

Эпоха: Sep 14, 2026, 21:32 UTC

1 63109C 25039F   26257.89770833 -.00002353  00000+0 -18279-4 0  2577
2 63109  43.0004 176.5732 0001766 253.3889 357.8604 15.70838072    16

Отслеживайте STARLINK-11625 в реальном времени с AllMySat

Download on the App Store